Fremont, MI

4:16 AM EDT on August 21, 2019 (GMT -0400)
Fremont

Weather History for KFFX - May, 2019

Change the Weather History Date:

Tuesday, May 14, 2019

  Actual Average (WUND) Record (WUND)
Temperature  
Mean Temperature 50 °F -  
Max Temperature 68 °F - - (-1)
Min Temperature 33 °F - - (-1)
Degree Days  
Heating Degree Days 14    
Moisture  
Dew Point 31 °F    
Average Humidity 51    
Maximum Humidity 98    
Minimum Humidity 22    
Precipitation  
Precipitation 0.00 in - - ()
Sea Level Pressure  
Sea Level Pressure 29.99 in    
Wind  
Wind Speed 3 mph ()    
Max Wind Speed 15 mph    
Max Gust Speed 21 mph    
Visibility 10.0 miles    
Events      
Averages and records for this station are not official NWS values.
T = Trace of Precipitation, MM = Missing Value Source: Averaged Metar Reports

Daily Weather History Graph

Daily Weather History Graph

Search for Another Location

Airport or City:

Astronomy

May. 14, 2019 Rise Set
Actual Time 6:20 AM EDT 9:00 PM EDT
Civil Twilight 5:48 AM EDT 9:33 PM EDT
Nautical Twilight 5:06 AM EDT 10:14 PM EDT
Astronomical Twilight 4:19 AM EDT 11:02 PM EDT
Moon 4:10 PM EDT (5/14) 4:25 AM EDT (5/14)
Length of Visible Light 15h 45m
Length of Day
14h 39m
Waxing Gibbous, 79% of the Moon is Illuminated
May 14
Waxing Gibbous
May 18
Full
May 26
Last Quarter
Jun 3
New
Jun 10
First Quarter

Hourly Weather History & Observations

Time (EDT) Temp. Windchill Dew Point Humidity Pressure Visibility Wind Dir Wind Speed Gust Speed Precip Events Conditions
12:16 AM 43.9 °F - 32.9 °F 65% 29.97 in 10.0 mi Calm Calm - N/A   Clear
12:36 AM 41.7 °F - 32.9 °F 71% 29.97 in 10.0 mi Calm Calm - N/A   Clear
12:55 AM 42.6 °F - 33.4 °F 70% 29.97 in 10.0 mi Calm Calm - N/A   Clear
1:15 AM 41.0 °F - 32.9 °F 73% 29.97 in 10.0 mi Calm Calm - N/A   Clear
1:36 AM 41.0 °F - 32.9 °F 73% 29.97 in 10.0 mi Calm Calm - N/A   Clear
1:56 AM 40.3 °F 36.3 °F 33.6 °F 77% 29.97 in 10.0 mi West 5.8 mph - N/A   Clear
2:15 AM 40.3 °F - 32.4 °F 73% 29.97 in 10.0 mi Calm Calm - N/A   Clear
2:35 AM 39.7 °F - 33.1 °F 77% 29.97 in 10.0 mi Calm Calm - N/A   Clear
2:56 AM 38.7 °F - 32.4 °F 78% 29.97 in 10.0 mi Calm Calm - N/A   Clear
3:15 AM 38.3 °F - 32.4 °F 79% 29.98 in 10.0 mi Calm Calm - N/A   Clear
3:35 AM 38.1 °F - 32.7 °F 81% 29.98 in 10.0 mi Calm Calm - N/A   Clear
3:55 AM 36.9 °F - 33.1 °F 86% 29.98 in 10.0 mi Calm Calm - N/A   Clear
4:16 AM 35.8 °F - 32.2 °F 87% 29.98 in 10.0 mi Calm Calm - N/A   Clear
4:36 AM 35.6 °F 31.7 °F 32.9 °F 90% 29.99 in 10.0 mi SW 4.6 mph - N/A   Clear
4:55 AM 35.6 °F - 33.3 °F 91% 29.99 in 10.0 mi Calm Calm - N/A   Clear
5:16 AM 35.4 °F - 33.1 °F 91% 30.00 in 10.0 mi Calm Calm - N/A   Clear
5:36 AM 34.9 °F - 33.4 °F 94% 30.00 in 10.0 mi Calm Calm - N/A   Clear
5:55 AM 35.1 °F - 33.3 °F 93% 30.00 in 10.0 mi Calm Calm - N/A   Clear
6:15 AM 34.5 °F - 34.0 °F 98% 30.00 in 10.0 mi Calm Calm - N/A   Clear
6:35 AM 33.6 °F - 33.1 °F 98% 30.01 in 10.0 mi Calm Calm - N/A   Clear
6:56 AM 34.0 °F - 32.4 °F 94% 30.01 in 10.0 mi Calm Calm - N/A   Clear
7:16 AM 34.3 °F - 33.8 °F 98% 30.02 in 10.0 mi Calm Calm - N/A   Clear
7:36 AM 37.6 °F - 36.7 °F 97% 30.02 in 10.0 mi Calm Calm - N/A   Clear
7:55 AM 40.6 °F - 38.5 °F 92% 30.03 in 10.0 mi Calm Calm - N/A   Clear
8:16 AM 43.7 °F - 38.3 °F 81% 30.03 in 10.0 mi Calm Calm - N/A   Clear
8:35 AM 45.1 °F - 36.0 °F 70% 30.03 in 10.0 mi Calm Calm - N/A   Clear
8:55 AM 48.9 °F - 35.6 °F 60% 30.03 in 10.0 mi West 3.5 mph - N/A   Clear
9:16 AM 51.4 °F - 35.4 °F 54% 30.03 in 10.0 mi Calm Calm - N/A   Clear
9:36 AM 53.6 °F - 34.2 °F 48% 30.03 in 10.0 mi WNW 5.8 mph - N/A   Clear
9:55 AM 55.8 °F - 32.4 °F 41% 30.03 in 10.0 mi West 6.9 mph - N/A   Clear
10:15 AM 58.1 °F - 31.6 °F 37% 30.03 in 10.0 mi West 3.5 mph - N/A   Clear
10:36 AM 59.7 °F - 28.9 °F 31% 30.03 in 10.0 mi West 4.6 mph - N/A   Clear
10:55 AM 61.2 °F - 30.6 °F 32% 30.03 in 10.0 mi SW 4.6 mph - N/A   Clear
11:15 AM 61.9 °F - 28.0 °F 28% 30.03 in 10.0 mi WSW 6.9 mph - N/A   Clear
11:36 AM 63.1 °F - 29.5 °F 28% 30.03 in 10.0 mi WSW 5.8 mph - N/A   Clear
11:55 AM 64.0 °F - 29.1 °F 27% 30.03 in 10.0 mi WSW 11.5 mph - N/A   Clear
12:15 PM 64.4 °F - 27.7 °F 25% 30.03 in 10.0 mi WSW 10.4 mph - N/A   Clear
12:36 PM 64.6 °F - 26.8 °F 24% 30.03 in 10.0 mi WSW 3.5 mph - N/A   Clear
12:56 PM 64.9 °F - 25.9 °F 23% 30.02 in 10.0 mi Calm Calm - N/A   Clear
1:15 PM 66.2 °F - 27.0 °F 23% 30.02 in 10.0 mi West 4.6 mph - N/A   Clear
1:35 PM 66.0 °F - 27.7 °F 24% 30.01 in 10.0 mi West 9.2 mph - N/A   Clear
1:56 PM 67.6 °F - 29.8 °F 24% 30.01 in 10.0 mi West 8.1 mph - N/A   Clear
2:16 PM 66.7 °F - 27.9 °F 23% 30.00 in 10.0 mi West 11.5 mph 17.3 mph N/A   Clear
2:35 PM 68.4 °F - 28.2 °F 22% 30.00 in 10.0 mi West 11.5 mph 17.3 mph N/A   Clear
2:56 PM 68.0 °F - 28.8 °F 23% 30.00 in 10.0 mi West 11.5 mph 17.3 mph N/A   Clear
3:15 PM 68.7 °F - 31.1 °F 25% 29.99 in 10.0 mi WNW 15.0 mph - N/A   Clear
3:35 PM 68.0 °F - 28.8 °F 23% 29.99 in 10.0 mi West 11.5 mph 18.4 mph N/A   Clear
3:56 PM 68.0 °F - 29.1 °F 23% 29.99 in 10.0 mi WSW 8.1 mph 16.1 mph N/A   Clear
4:16 PM 68.7 °F - 30.9 °F 25% 29.98 in 10.0 mi West 10.4 mph 20.7 mph N/A   Clear
4:35 PM 67.5 °F - 29.3 °F 24% 29.98 in 10.0 mi WSW 11.5 mph - N/A   Clear
4:55 PM 67.3 °F - 29.1 °F 24% 29.98 in 10.0 mi West 9.2 mph 19.6 mph N/A   Clear
5:16 PM 67.1 °F - 30.0 °F 25% 29.98 in 10.0 mi West 8.1 mph 16.1 mph N/A   Clear
5:35 PM 67.1 °F - 29.7 °F 25% 29.97 in 10.0 mi SW 10.4 mph - N/A   Clear
5:55 PM 66.7 °F - 29.1 °F 24% 29.97 in 10.0 mi WSW 9.2 mph - N/A   Clear
6:15 PM 66.7 °F - 30.0 °F 25% 29.97 in 10.0 mi West 5.8 mph - N/A   Clear
6:36 PM 65.8 °F - 29.7 °F 26% 29.97 in 10.0 mi WSW 8.1 mph - N/A   Clear
6:55 PM 65.7 °F - 29.1 °F 25% 29.96 in 10.0 mi SW 11.5 mph - N/A   Clear
7:16 PM 64.9 °F - 29.5 °F 26% 29.96 in 10.0 mi WSW 8.1 mph - N/A   Clear
7:36 PM 63.9 °F - 29.3 °F 27% 29.96 in 10.0 mi SW 11.5 mph - N/A   Clear
7:55 PM 62.1 °F - 28.8 °F 28% 29.96 in 10.0 mi SW 11.5 mph - N/A   Clear
8:16 PM 60.4 °F - 27.0 °F 28% 29.97 in 10.0 mi SW 9.2 mph - N/A   Clear
8:36 PM 59.0 °F - 25.9 °F 28% 29.97 in 10.0 mi WSW 6.9 mph - N/A   Clear
8:55 PM 57.2 °F - 29.7 °F 35% 29.97 in 10.0 mi Calm Calm - N/A   Clear
9:15 PM 55.4 °F - 30.0 °F 38% 29.97 in 10.0 mi Calm Calm - N/A   Clear
9:36 PM 54.7 °F - 28.9 °F 37% 29.97 in 10.0 mi Calm Calm - N/A   Clear
9:55 PM 52.7 °F - 30.0 °F 42% 29.97 in 10.0 mi Calm Calm - N/A   Clear
10:15 PM 51.1 °F - 32.0 °F 48% 29.98 in 10.0 mi Calm Calm - N/A   Clear
10:36 PM 50.4 °F - 34.2 °F 54% 29.98 in 10.0 mi Calm Calm - N/A   Clear
10:55 PM 49.1 °F - 32.4 °F 53% 29.98 in 10.0 mi Calm Calm - N/A   Clear
11:15 PM 48.4 °F - 32.5 °F 54% 29.98 in 10.0 mi Calm Calm - N/A   Clear
11:36 PM 47.3 °F - 32.4 °F 56% 29.98 in 10.0 mi Calm Calm - N/A   Clear
11:56 PM 47.7 °F - 32.7 °F 56% 29.98 in 10.0 mi Calm Calm - N/A   Clear